Location: Eckley Miners' Village
(40.9930°N, 75.8630°W)
Time: 10:17:59
(UTC-04:00)

Vanguard 1 Rocket - Pass Details

Date: 08 March 2026
Orbit: 654 x 4213 km, 34.3° (Epoch: 11 April)

Event Time Altitude Azimuth Distance (km) Brightness Sun altitude
Rises 10:06:54 0° 238° (WSW) 2,981 9.9 27.4°
Reaches altitude 10° 10:09:18 10° 227° (SW) 2,051 9.2 27.8°
Maximum altitude 10:13:14 32° 163° (SSE) 1,217 9.3 28.4°
Drops below altitude 10° 10:18:07 10° 101° (E) 2,570 10.9 29.1°
Sets 10:21:30 0° 92° (E) 3,896 11.4 29.6°
